Weather History for KSNK - March, 2013

Change the Weather History Date:

Tuesday, March 12, 2013

  Actual Average Record
Temperature  
Mean Temperature 50 °F -  
Max Temperature 61 °F 68 °F 92 °F (1967)
Min Temperature 39 °F 39 °F 20 °F (1914)
Degree Days  
Heating Degree Days 15    
Moisture  
Dew Point 20 °F    
Average Humidity 31    
Maximum Humidity 44    
Minimum Humidity 22    
Precipitation  
Precipitation 0.00 in - - ()
Sea Level Pressure  
Sea Level Pressure 30.14 in    
Wind  
Wind Speed 11 mph (NNE)    
Max Wind Speed 26 mph    
Max Gust Speed 33 mph    
Visibility 10 miles    
Events      
Averages and records for this station are not official NWS values.
T = Trace of Precipitation, MM = Missing Value Source: NWS Daily Summary

Daily Weather History Graph

Daily Weather History Graph

Search for Another Location

Airport or City:

Trip Planner

Search our weather history database for the weather conditions in past years. The results will help you decide how hot, cold, wet, or windy it might be!

Date:

Astronomy

Mar. 12, 2013 Rise Set
Actual Time 7:57 AM CDT 7:49 PM CDT
Civil Twilight 7:32 AM CDT 8:14 PM CDT
Nautical Twilight 7:04 AM CDT 8:42 PM CDT
Astronomical Twilight 6:35 AM CDT 9:11 PM CDT
Moon 8:10 AM CDT (3/12) 8:59 PM CDT (3/12)
Length of Visible Light 12h 41m
Length of Day
11h 52m
New Moon, 1% of the Moon is Illuminated
Mar 12
New Moon
Mar 19
First Quarter
Mar 27
Full
Apr 2
Last Quarter
Apr 10
New

Hourly Weather History & Observations

Time (CDT) Temp. Windchill Dew Point Humidity Pressure Visibility Wind Dir Wind Speed Gust Speed Precip Events Conditions
12:35 AM 49.3 °F - 15.6 °F 26% 29.97 in 10.0 mi South 8.1 mph - N/A   Clear
12:55 AM 49.3 °F - 15.8 °F 26% 29.97 in 10.0 mi South 8.1 mph - N/A   Clear
1:15 AM 49.3 °F - 16.0 °F 27% 29.97 in 10.0 mi South 6.9 mph - N/A   Clear
1:35 AM 48.2 °F - 15.8 °F 27% 29.97 in 10.0 mi South 6.9 mph - N/A   Clear
1:55 AM 48.7 °F - 16.0 °F 27% 29.97 in 10.0 mi SSE 8.1 mph - N/A   Clear
2:15 AM 46.8 °F - 15.3 °F 28% 29.97 in 10.0 mi South 6.9 mph - N/A   Clear
2:35 AM 45.3 °F 41.6 °F 14.9 °F 29% 29.97 in 10.0 mi SSE 6.9 mph - N/A   Clear
2:55 AM 43.2 °F 39.7 °F 14.2 °F 31% 29.97 in 10.0 mi South 5.8 mph - N/A   Clear
3:15 AM 42.8 °F - 14.2 °F 31% 29.97 in 10.0 mi Calm Calm - N/A   Clear
3:35 AM 42.4 °F 38.1 °F 14.0 °F 32% 29.97 in 10.0 mi South 6.9 mph - N/A   Clear
3:55 AM 42.6 °F 37.8 °F 14.0 °F 31% 29.96 in 10.0 mi South 8.1 mph - N/A   Clear
4:15 AM 42.3 °F 36.8 °F 14.4 °F 32% 29.95 in 10.0 mi South 9.2 mph - N/A   Clear
4:35 AM 43.0 °F 38.2 °F 14.4 °F 31% 29.96 in 10.0 mi South 8.1 mph - N/A   Clear
4:55 AM 42.1 °F 39.2 °F 14.0 °F 32% 29.96 in 10.0 mi South 4.6 mph - N/A   Clear
5:15 AM 41.2 °F 36.0 °F 14.2 °F 33% 29.97 in 10.0 mi South 8.1 mph - N/A   Clear
5:35 AM 41.9 °F 35.9 °F 14.2 °F 33% 29.96 in 10.0 mi South 10.4 mph - N/A   Clear
5:55 AM 41.9 °F 35.9 °F 14.0 °F 32% 29.97 in 10.0 mi South 10.4 mph - N/A   Clear
6:15 AM 42.1 °F 37.7 °F 14.0 °F 32% 29.98 in 10.0 mi South 6.9 mph - N/A   Clear
6:35 AM 41.9 °F 35.9 °F 14.0 °F 32% 29.98 in 10.0 mi South 10.4 mph - N/A   Clear
6:55 AM 42.1 °F 36.6 °F 13.8 °F 32% 29.99 in 10.0 mi South 9.2 mph - N/A   Clear
7:15 AM 42.1 °F 35.7 °F 13.8 °F 32% 30.00 in 10.0 mi SSW 11.5 mph - N/A   Clear
7:35 AM 41.5 °F 35.9 °F 13.8 °F 32% 30.02 in 10.0 mi SSW 9.2 mph - N/A   Clear
7:55 AM 40.3 °F 34.4 °F 14.0 °F 34% 30.02 in 10.0 mi SW 9.2 mph - N/A   Clear
8:15 AM 40.1 °F 36.9 °F 14.0 °F 35% 30.04 in 10.0 mi WSW 4.6 mph - N/A   Clear
8:35 AM 39.7 °F 34.9 °F 14.0 °F 35% 30.05 in 10.0 mi West 6.9 mph - N/A   Clear
8:55 AM 43.7 °F 36.0 °F 19.0 °F 37% 30.06 in 10.0 mi NNW 17.3 mph - N/A   Clear
9:15 AM 46.8 °F - 23.4 °F 40% 30.08 in 10.0 mi NNW 20.7 mph 27.6 mph N/A   Clear
9:35 AM 47.3 °F - 24.4 °F 41% 30.09 in 10.0 mi NNW 23.0 mph 28.8 mph N/A   Clear
9:55 AM 48.2 °F - 26.1 °F 42% 30.10 in 10.0 mi North 21.9 mph 28.8 mph N/A   Clear
10:15 AM 48.7 °F - 26.6 °F 42% 30.13 in 10.0 mi North 23.0 mph 33.4 mph N/A   Clear
10:35 AM 49.3 °F - 26.6 °F 41% 30.15 in 10.0 mi NNW 26.5 mph 31.1 mph N/A   Clear
10:55 AM 49.3 °F - 26.2 °F 41% 30.16 in 10.0 mi North 21.9 mph 32.2 mph N/A   Clear
11:15 AM 49.3 °F - 25.2 °F 39% 30.17 in 10.0 mi North 20.7 mph 28.8 mph N/A   Clear
11:35 AM 50.0 °F - 24.8 °F 37% 30.17 in 10.0 mi North 23.0 mph 32.2 mph N/A   Clear
11:55 AM 51.6 °F - 24.8 °F 35% 30.18 in 10.0 mi NNW 25.3 mph 28.8 mph N/A   Clear
12:15 PM 52.2 °F - 24.6 °F 34% 30.18 in 10.0 mi North 25.3 mph 33.4 mph N/A   Clear
12:35 PM 53.8 °F - 25.3 °F 33% 30.19 in 10.0 mi North 15.0 mph 26.5 mph N/A   Clear
12:55 PM 54.5 °F - 25.0 °F 32% 30.20 in 10.0 mi North 13.8 mph 23.0 mph N/A   Clear
1:15 PM 54.7 °F - 24.6 °F 31% 30.20 in 10.0 mi North 17.3 mph 25.3 mph N/A   Clear
1:35 PM 55.8 °F - 24.4 °F 30% 30.20 in 10.0 mi North 18.4 mph 26.5 mph N/A   Clear
1:55 PM 56.8 °F - 24.4 °F 29% 30.19 in 10.0 mi NNE 16.1 mph 25.3 mph N/A   Clear
2:15 PM 56.8 °F - 23.5 °F 28% 30.20 in 10.0 mi North 17.3 mph 25.3 mph N/A   Clear
2:35 PM 56.8 °F - 23.4 °F 27% 30.20 in 10.0 mi North 17.3 mph 25.3 mph N/A   Clear
2:55 PM 58.5 °F - 23.5 °F 26% 30.19 in 10.0 mi North 17.3 mph 25.3 mph N/A   Clear
3:15 PM 59.4 °F - 22.8 °F 25% 30.19 in 10.0 mi NNE 15.0 mph 26.5 mph N/A   Clear
3:35 PM 59.9 °F - 22.6 °F 24% 30.19 in 10.0 mi NNE 19.6 mph 25.3 mph N/A   Clear
3:55 PM 59.9 °F - 23.0 °F 24% 30.19 in 10.0 mi NNE 13.8 mph 27.6 mph N/A   Clear
4:15 PM 60.3 °F - 23.2 °F 24% 30.19 in 10.0 mi NE 19.6 mph 25.3 mph N/A   Clear
4:35 PM 60.4 °F - 23.0 °F 24% 30.20 in 10.0 mi NNE 17.3 mph - N/A   Clear
4:55 PM 60.8 °F - 21.9 °F 22% 30.20 in 10.0 mi North 17.3 mph 23.0 mph N/A   Clear
5:15 PM 61.0 °F - 21.7 °F 22% 30.20 in 10.0 mi North 16.1 mph 23.0 mph N/A   Clear
5:35 PM 60.8 °F - 21.2 °F 22% 30.21 in 10.0 mi North 15.0 mph 24.2 mph N/A   Clear
5:55 PM 60.3 °F - 21.4 °F 22% 30.22 in 10.0 mi NNE 16.1 mph 23.0 mph N/A   Clear
6:15 PM 59.4 °F - 21.2 °F 23% 30.22 in 10.0 mi North 15.0 mph 21.9 mph N/A   Clear
6:35 PM 59.4 °F - 21.0 °F 23% 30.23 in 10.0 mi North 15.0 mph 24.2 mph N/A   Clear
6:55 PM 59.0 °F - 20.8 °F 23% 30.23 in 10.0 mi NNE 16.1 mph 21.9 mph N/A   Clear
7:15 PM 57.2 °F - 19.8 °F 23% 30.24 in 10.0 mi NNE 13.8 mph 19.6 mph N/A   Clear
7:35 PM 56.8 °F - 20.1 °F 24% 30.25 in 10.0 mi NNE 15.0 mph - N/A   Clear
7:55 PM 56.1 °F - 20.1 °F 25% 30.26 in 10.0 mi NNE 6.9 mph - N/A   Clear
8:15 PM 54.5 °F - 19.9 °F 26% 30.28 in 10.0 mi North 8.1 mph - N/A   Clear
8:35 PM 54.5 °F - 20.8 °F 27% 30.28 in 10.0 mi NNE 9.2 mph - N/A   Clear
8:55 PM 54.0 °F - 21.0 °F 28% 30.30 in 10.0 mi NNE 10.4 mph - N/A   Clear
9:15 PM 51.8 °F - 21.0 °F 30% 30.31 in 10.0 mi NNE 10.4 mph - N/A   Clear
9:35 PM 51.6 °F - 22.6 °F 32% 30.31 in 10.0 mi NNE 6.9 mph - N/A   Clear
9:55 PM 49.8 °F - 22.6 °F 34% 30.32 in 10.0 mi NNE 6.9 mph - N/A   Clear
10:15 PM 49.5 °F - 23.0 °F 35% 30.33 in 10.0 mi NNE 9.2 mph - N/A   Clear
10:35 PM 49.5 °F - 23.4 °F 36% 30.33 in 10.0 mi NE 10.4 mph - N/A   Clear
10:55 PM 49.3 °F - 23.9 °F 37% 30.34 in 10.0 mi NE 9.2 mph - N/A   Clear
11:15 PM 49.3 °F - 25.0 °F 39% 30.34 in 10.0 mi NE 9.2 mph - N/A   Clear
11:35 PM 49.3 °F - 25.9 °F 40% 30.35 in 10.0 mi NE 8.1 mph - N/A   Clear
11:55 PM 49.3 °F - 28.0 °F 44% 30.35 in 10.0 mi NE 9.2 mph - N/A   Clear